Miscellaneous Local Product
Issued by NWS North Platte, NE

Home | Current Version | Previous Version | Text Only | Print | Product List | Glossary On
Versions: 1 2 3 4 5 6 7 8 9 10 11 12 13 14 15 16 17 18 19 20 21 22 23 24 25 26 27 28 29 30 31 32 33 34 35 36 37 38 39 40 41 42 43 44 45 46 47 48 49 50
000
AXUS43 KLBF 251610
MISLBF


WESTERN AND NORTH CENTRAL NEBRASKA HOURLY WEATHER ROUNDUP
NATIONAL WEATHER SERVICE NORTH PLATTE NE
1100 AM CDT FRI MAY 25 2018

NOTE: "FAIR" INDICATES FEW OR NO CLOUDS BELOW 12,000 FEET WITH NO
SIGNIFICANT WEATHER AND/OR OBSTRUCTIONS TO VISIBILITY.

NOTE: STATIONS NOT REPORTING VARIABLES SUCH AS SKY/WEATHER OR
PRESSURE ARE PROVIDED BY RAWS AND APRS NETWORKS AND ARE NOT UNDER
NATIONAL WEATHER SERVICE QUALITY CONTROL.

...OBSERVATIONS IN AND NEAR THE EASTERN PANHANDLE OF NEBRASKA...

CITY           SKY/WX    TMP DP  RH WIND       PRES   REMARKS
PINE RIDGE     SUNNY     76  57  51 W8        29.95S
GORDON         FAIR      79  52  38 W10       29.94F
CHADRON        SUNNY     76  55  48 W10       29.96S
ALLIANCE       SUNNY     79  53  40 W10       29.98S
SIDNEY         SUNNY     81  51  35 NW12      30.03F
CRESCENT LAKE    N/A     81  52  36 NW5         N/A
$$

...OBSERVATIONS IN NORTHERN NEBRASKA AND FAR SOUTHERN SOUTH DAKOTA...

CITY           SKY/WX    TMP DP  RH WIND       PRES   REMARKS
WINNER         FAIR      81  60  48 CALM      29.86F
VALENTINE      SUNNY     82  58  43 NW6       29.88F
AINSWORTH      SUNNY     80  60  51 W7        29.89F
O`NEILL        SUNNY     84  63  48 CALM      29.88S
THEDFORD       SUNNY     81  60  47 NW9       29.92S
BROKEN BOW     SUNNY     83  59  44 VRB3      29.90F
ORD            SUNNY     82  58  43 VRB5      29.87F
ALBION         SUNNY     82  61  48 W8        29.87F
VALENTINE NWR    N/A     79  59  49 W8          N/A
HALSEY           N/A     82  56  41 W6          N/A
BUTTE            N/A     79  66  63 N3          N/A
CHAMBERS         N/A     86  63  45 N3          N/A
EWING            N/A     83  69  61 NW3         N/A
$$

...OBSERVATIONS IN SOUTHWEST NEBRASKA AND FAR NORTHEAST COLORADO...

CITY           SKY/WX    TMP DP  RH WIND       PRES   REMARKS
WRAY           FAIR      82  48  30 W10       30.00F
HOLYOKE        FAIR      84  50  30 W12       30.01S
IMPERIAL       SUNNY     84  49  29 W9        29.97F
OGALLALA       SUNNY     80  57  44 W7        29.97S
NORTH PLATTE   SUNNY     80  60  50 W7        29.93F
MCCOOK         SUNNY     80  57  45 W7        29.94F
LEXINGTON      SUNNY     81  59  47 W6        29.92S
STAPLETON        N/A     81  62  51 CALM        N/A
GOTHENBURG       N/A     78  52  39 W3          N/A
CALLAWAY         N/A     80  57  45 W12         N/A
$$

...OBSERVATIONS IN CENTRAL LINCOLN COUNTY AREA...

CITY           SKY/WX    TMP DP  RH WIND       PRES   REMARKS
N.P. AIRPORT   SUNNY     80  60  50 W7        29.93F
N.P. SOUTHEAST   N/A     81  58  45 W3          N/A
$$

...OBSERVATIONS ACROSS THE ROCKIES AND WESTERN HIGH PLAINS...

CITY           SKY/WX    TMP DP  RH WIND       PRES   REMARKS
RAPID CITY     SUNNY     78  56  46 N10       29.93S
SCOTTSBLUFF    SUNNY     73  55  53 W9        30.01F
CHEYENNE       SUNNY     74  40  29 CALM      30.14F
DENVER         MOSUNNY   75  39  27 SW3       30.11F
BERTHOUD PASS  FAIR      45  32  61 NW21G26   30.58S
COPPER MTN     SUNNY     52  18  25 SW6       30.56S
MONARCH PASS   SUNNY     50  14  23 MISG      30.67S
ASPEN          SUNNY     66  27  23 N6        30.27F
STEAMBOAT      FAIR      59  38  45 CALM      30.22F
LARAMIE        SUNNY     67  36  31 S5        30.21F
CASPER         SUNNY     69  46  43 SW9       30.10F
$$

...OBSERVATIONS ACROSS THE NORTHERN PLAINS...

CITY           SKY/WX    TMP DP  RH WIND       PRES   REMARKS
BISMARCK       SUNNY     81  58  45 SW12      29.76S
FARGO          FAIR      85  57  38 W15G22    29.69F
PIERRE         SUNNY     81  64  56 W8        29.81S
SIOUX FALLS    MOSUNNY   84  66  54 CALM      29.82S
$$

...OBSERVATIONS ACROSS THE CENTRAL AND SOUTHERN PLAINS...

CITY           SKY/WX    TMP DP  RH WIND       PRES   REMARKS
OMAHA          MOSUNNY   81  62  52 SW7       29.85F
GRAND ISLAND   SUNNY     82  56  40 W7        29.91S
KANSAS CITY    CLOUDY    74  67  78 W8        29.94R
WICHITA        PTSUNNY   78  62  57 S10       29.93S
DODGE CITY     SUNNY     82  64  54 S8        29.95R
OKLAHOMA CITY  CLOUDY    67  63  87 S13       29.95F
DALLAS         MOSUNNY   87  71  58 SW8       29.97R HX  93
AMARILLO       SUNNY     86  53  32 W16G24    30.01S
$$




USA.gov is the U.S. government's official web portal to all federal, state and local government web resources and services.